SPACEBEENZ-1 (46959 NORAD) Tracking and Keplerian Element Data

This shows tracking and keplerian element data for the satellite.

Feedback or suggestion? Click here.




ElementValue
Catalog46959
NameSPACEBEENZ-1
Epoch Orbit886
Epoch Day20.8258547
Epoch Year2021
RAAN160.1869
Inclination97.3747
Eccentricity0.0017863
Argument of Perigee83.8772
Mean Anonmoly276.4505
Mean Motion15.21466791
Decay Rate2.519E-05
L11 46959U 20085AG 21020.82585470 .00002519 00000-0 11468-3 0 9992
L22 46959 97.3747 160.1869 0017863 83.8772 276.4505 15.21466791 8866

Live tracking and technical data element details for SPACEBEENZ-1 (NORAD 46959). SPACEBEENZ-1 can be tracked NOW for your location showing map with azimuth and elevation plus other details from your city location.

Track the satellite on the map from your city or location and see movement details for azimuth, elevation, latitude, longitude, range, height, and movement on the map or in text.







IsCatalogInMostPopularTable: catalog: 46959, numindb: 21
Update: records affected: 1



GetName: 46959 SPACEBEENZ-1

Hit Count: updated at: Fri, 22 Jan 2021 18:22:26 GMT